リニア彗星

187P/LINEAR (2018)

English version
Home page
Updated on October 10, 2020

---------------------------------------------------------------------

・ プロフィール

・ 写真集

・ 軌道要素

Epoch 2018 June 11.0 TT = JDT 2458280.5
T 2018 May 26.55861 TT                                  Rudenko
q   3.8806835            (2000.0)            P               Q
n   0.09996003     Peri.  133.24602     -0.43127063     +0.87473118
a   4.5981712      Node   109.98005     -0.88085706     -0.35523068
e   0.1560376      Incl.   13.60209     -0.19518322     -0.32963090
P   9.86
From 285 observations 1999 May 12-2020 Sept. 16, mean residual 0".7.

・ 光度変化

        m1 = 5.0 + 5 logΔ + 20.0 log r

---------------------------------------------------------------------

軌道要素はM.P.E.C. 2020-S188に掲載されたものです。
光度グラフはComet for Windowsで作成したものです。

---------------------------------------------------------------------

Copyright(C) Seiichi Yoshida (comet@aerith.net). All rights reserved.